Simultaneous Nadir Overpasses (SNOs) Predictions

Prediction of SNOs between GOES-14 and AQUA Satellite Orbit:

Table of predicted SNOs for the next 14.0 days since TLE Epoch: 2/13/2021
Index Date Time (GOES-14) GOES-14 Lat,Lon AQUA Lat,Lon Distance(km) Time Diff (sec)
1 02/14/2021 08:29:38 -0.01,-104.38 -0.27,-103.23 130.68 80
2 02/14/2021 20:51:00 0.00,-104.17 -0.89,-108.41 482.30 80
3 02/16/2021 08:17:27 -0.02,-104.39 -0.90,-100.27 467.86 80
4 02/16/2021 20:38:49 0.01,-104.17 -0.26,-105.45 145.38 80
5 02/18/2021 20:23:58 0.01,-104.18 0.37,-102.50 191.46 80
6 02/19/2021 08:45:15 -0.00,-104.39 0.66,-107.67 372.29 80
7 02/21/2021 08:33:03 -0.00,-104.39 0.09,-104.70 35.34 80
8 02/23/2021 08:23:32 -0.00,-104.40 -0.55,-101.74 301.56 80
9 02/23/2021 20:44:55 -0.00,-104.20 -0.59,-106.92 309.32 80
10 02/25/2021 20:30:04 -0.00,-104.20 0.05,-103.97 26.98 80
